Terug naar catalogus

WESTFORD NEEDLES

ActiefPO
NORAD 2380·DEBRIS·🇺🇸 United States

Gelanceerd May 9, 1963 vanaf Vandenberg Space Force Base

Loading…

Volgende Passages (komende 24 uur)

TLE

VersSource: Space-Track

Epoch: Sep 14, 2026, 10:36 UTC

1 02380U 63014AA  26257.44216490  .00000016  00000-0  42572-2 0  9998
2 02380  87.1969  68.5896 0610629  65.8671 300.4804  8.68486218398824

Volg WESTFORD NEEDLES in realtime met AllMySat

Download on the App Store